This demonstration page uses our WeatherBlox Daily Observations layout. Learn more.

39.92423, -83.80882

Hourly Observations for September 10, 2019

Temp ( °F °C ) Dew Point ( °F °C ) Humidity (%) Winds ( mph kmh ) Pressure ( in mb ) Visibility ( mi km ) Precip ( " mm )
12:56 am 00:56 Clear 63 17.2 60 15.6 90 90 ESE 5 7 30.21 1023 10 16.09344 0 0
1:56 am 01:56 Clear 63 17.2 60 15.6 90 90 SE 3 6 30.21 1023 10 16.09344 0 0
2:56 am 02:56 Clear 63 17.2 61 16.1 93 93 SE 7 11 30.18 1022 10 16.09344 0 0
3:56 am 03:56 Clear 63 17.2 60 15.6 90 90 SE 7 11 30.18 1022 10 16.09344 0 0
4:56 am 04:56 Clear 64 17.8 61 16.1 90 90 SE 8 13 30.18 1022 10 16.09344 0 0
5:56 am 05:56 Clear 61 16.1 60 15.6 97 97 ESE 5 7 30.18 1022 10 16.09344 0 0
6:56 am 06:56 Clear 64 17.8 61 16.1 90 90 SSE 9 15 30.18 1022 10 16.09344 0 0
7:56 am 07:56 Sunny 65 18.3 62 16.7 90 90 SSE 5 7 30.21 1023 10 16.09344 0 0
8:56 am 08:56 Sunny 69 20.6 62 16.7 78 78 SSE 6 9 30.21 1023 10 16.09344 0 0
9:56 am 09:56 Sunny 75 23.9 64 17.8 69 69 VRB 7 11 30.21 1023 10 16.09344 0 0
10:56 am 10:56 Sunny 81 27.2 66 18.9 61 61 SSW 8 13 30.21 1023 10 16.09344 0 0
11:56 am 11:56 Sunny 85 29.4 66 18.9 53 53 SSW 7 11 30.21 1023 10 16.09344 0 0
12:56 pm 12:56 Sunny 88 31.1 66 18.9 48 48 SSW 8 13 30.18 1022 10 16.09344 0 0
1:56 pm 13:56 Sunny 89 31.7 66 18.9 47 47 SW 8 13 30.18 1022 10 16.09344 0 0
2:56 pm 14:56 Sunny 91 32.8 66 18.9 44 44 SSW 9 15 30.15 1021 10 16.09344 0 0
3:56 pm 15:56 Sunny 91 32.8 65 18.3 42 42 WSW 8 13 30.15 1021 8 12.874752 0 0
4:22 pm 16:22 Mostly Sunny 91 33 63 17 38 38 WSW 12 19 30.12 1020 7 11.265408 0 0
4:56 pm 16:56 Hazy 92 33.3 64 17.8 40 40 W 10 17 30.15 1021 6 9.656064 0 0
5:22 pm 17:22 Hazy 91 33 64 18 41 41 W 8 13 30.12 1020 2.5 4.02336 0 0
5:34 pm 17:34 Mostly Sunny 91 33 66 19 44 44 W 7 11 30.12 1020 10 16.09344 0 0
5:56 pm 17:56 Hazy 91 32.8 67 19.4 45 45 W 6 9 30.12 1020 2 3.218688 0 0
6:10 pm 18:10 Mostly Sunny 90 32 68 20 49 49 WSW 8 13 30.09 1019 10 16.09344 0 0
6:56 pm 18:56 Sunny 87 30.6 69 20.6 55 55 S 3 6 30.12 1020 10 16.09344 0 0
7:56 pm 19:56 Hazy 82 27.8 70 21.1 67 67 S 6 9 30.12 1020 4 6.437376 0 0
8:56 pm 20:56 Clear 79 26.1 70 21.1 74 74 S 6 9 30.12 1020 10 16.09344 0 0
9:56 pm 21:56 Clear 75 23.9 70 21.1 84 84 Calm 30.12 1020 10 16.09344 0 0
10:56 pm 22:56 Clear 77 25 70 21.1 79 79 S 6 9 30.15 1021 10 16.09344 0 0
11:56 pm 23:56 Clear 74 23.3 70 21.1 88 88 Calm 30.15 1021 10 16.09344 0 0

Powered by AerisWeather